When you browse on this site, cookies collect data to enhance your experience and personalize the content and advertising you see.
Visit our Privacy Policy to learn more. By continuing to use the site, you agree to this use of cookies and data.

Hourly Weather Kiel

Today, 29 September, Tuesday

Time Temperature Precipitation Wind Pressure Humidity
00:00 +10°C° 0 mm 2 mps 758 mmHg 91%
01:00 +9°C° 0 mm 3 mps 759 mmHg 92%
02:00 +9°C° 0 mm 2 mps 759 mmHg 92%
03:00 +9°C° 0 mm 2 mps 759 mmHg 92%
04:00 +9°C° 0 mm 2 mps 758 mmHg 91%
05:00 +9°C° 0 mm 2 mps 759 mmHg 91%
06:00 +9°C° 0 mm 2 mps 759 mmHg 91%
07:00 +8°C° 0 mm 2 mps 759 mmHg 91%
08:00 +10°C° 0 mm 2 mps 760 mmHg 83%
09:00 +13°C° 0 mm 2 mps 760 mmHg 75%
10:00 +15°C° 0 mm 2 mps 760 mmHg 67%
11:00 +16°C° 0 mm 3 mps 760 mmHg 63%
12:00 +17°C° 0 mm 3 mps 760 mmHg 59%
13:00 +18°C° 0 mm 3 mps 760 mmHg 55%
14:00 +18°C° 0 mm 3 mps 760 mmHg 56%
15:00 +18°C° 0 mm 3 mps 760 mmHg 58%
16:00 +18°C° 0 mm 3 mps 760 mmHg 60%
17:00 +17°C° 0 mm 3 mps 760 mmHg 65%
18:00 +14°C° 0 mm 3 mps 760 mmHg 71%
19:00 +14°C° 0 mm 2 mps 760 mmHg 77%
20:00 +14°C° 0 mm 2 mps 760 mmHg 77%
21:00 +13°C° 0 mm 3 mps 760 mmHg 77%
22:00 +13°C° 0 mm 3 mps 760 mmHg 77%
23:00 +12°C° 0 mm 3 mps 760 mmHg 79%

Tomorrow, 30 September, Wednesday

Time Temperature Precipitation Wind Pressure Humidity
00:00 +12°C° 0 mm 3 mps 760 mmHg 82%
01:00 +11°C° 0 mm 3 mps 760 mmHg 84%
02:00 +11°C° 0 mm 3 mps 760 mmHg 86%
03:00 +11°C° 0 mm 3 mps 760 mmHg 87%
04:00 +11°C° 0 mm 3 mps 760 mmHg 89%
05:00 +11°C° 0 mm 3 mps 760 mmHg 89%
06:00 +11°C° 0 mm 3 mps 760 mmHg 89%
07:00 +11°C° 0 mm 3 mps 760 mmHg 89%
08:00 +13°C° 0 mm 3 mps 760 mmHg 87%
09:00 +14°C° 0 mm 3 mps 760 mmHg 84%
10:00 +16°C° 0 mm 3 mps 760 mmHg 81%
11:00 +17°C° 0 mm 3 mps 760 mmHg 78%
12:00 +18°C° 0 mm 3 mps 759 mmHg 76%
13:00 +19°C° 0 mm 3 mps 759 mmHg 73%
14:00 +19°C° 0 mm 3 mps 759 mmHg 72%
15:00 +19°C° 0 mm 3 mps 759 mmHg 72%
16:00 +19°C° 0 mm 2 mps 758 mmHg 71%
17:00 +17°C° 0 mm 3 mps 758 mmHg 78%
18:00 +16°C° 0 mm 3 mps 758 mmHg 84%
19:00 +13°C° 0 mm 3 mps 758 mmHg 91%
20:00 +13°C° 0 mm 3 mps 758 mmHg 91%
21:00 +13°C° 0 mm 4 mps 758 mmHg 91%
22:00 +12°C° 0 mm 4 mps 758 mmHg 91%
23:00 +12°C° 0 mm 4 mps 757 mmHg 90%

Day after tomorrow, 1 October, Thursday

Time Temperature Precipitation Wind Pressure Humidity
00:00 +12°C° 0 mm 4 mps 757 mmHg 89%
01:00 +11°C° 0 mm 4 mps 757 mmHg 87%
02:00 +11°C° 0 mm 4 mps 756 mmHg 86%
03:00 +11°C° 0 mm 4 mps 756 mmHg 86%
04:00 +10°C° 0 mm 4 mps 755 mmHg 85%
05:00 +9°C° 0 mm 5 mps 755 mmHg 84%
06:00 +9°C° 0 mm 5 mps 755 mmHg 83%
07:00 +10°C° 0 mm 5 mps 754 mmHg 82%
08:00 +12°C° 0 mm 5 mps 754 mmHg 77%
09:00 +14°C° 0 mm 6 mps 754 mmHg 72%
10:00 +15°C° 0 mm 6 mps 753 mmHg 67%
11:00 +16°C° 0 mm 7 mps 753 mmHg 64%
12:00 +17°C° 0 mm 7 mps 753 mmHg 62%
13:00 +18°C° 0 mm 7 mps 752 mmHg 60%
14:00 +18°C° 0 mm 7 mps 752 mmHg 61%
15:00 +19°C° 0 mm 6 mps 752 mmHg 62%
16:00 +19°C° 0 mm 6 mps 751 mmHg 62%
17:00 +17°C° 0 mm 6 mps 751 mmHg 68%
18:00 +15°C° 0 mm 5 mps 751 mmHg 73%
19:00 +14°C° 0 mm 5 mps 751 mmHg 78%
20:00 +14°C° 0 mm 5 mps 751 mmHg 79%
21:00 +14°C° 0 mm 5 mps 751 mmHg 80%
22:00 +13°C° 0 mm 5 mps 751 mmHg 81%
23:00 +13°C° 0 mm 5 mps 751 mmHg 84%

2 October, Friday

Time Temperature Precipitation Wind Pressure Humidity
00:00 +12°C° 0 mm 4 mps 751 mmHg 86%
01:00 +12°C° 0 mm 4 mps 751 mmHg 89%
02:00 +12°C° 0 mm 4 mps 751 mmHg 90%
03:00 +11°C° 0 mm 4 mps 751 mmHg 91%
04:00 +11°C° 0 mm 4 mps 751 mmHg 92%
05:00 +11°C° 0 mm 4 mps 751 mmHg 93%
06:00 +11°C° 0 mm 4 mps 752 mmHg 94%
07:00 +11°C° 0 mm 4 mps 752 mmHg 95%
08:00 +12°C° 0 mm 4 mps 752 mmHg 88%
09:00 +14°C° 0 mm 5 mps 752 mmHg 81%
10:00 +15°C° 0 mm 5 mps 753 mmHg 74%
11:00 +16°C° 0 mm 6 mps 753 mmHg 72%
12:00 +17°C° 0 mm 6 mps 753 mmHg 69%
13:00 +17°C° 0 mm 6 mps 753 mmHg 66%
14:00 +17°C° 0 mm 7 mps 753 mmHg 67%
15:00 +17°C° 0 mm 7 mps 753 mmHg 69%
16:00 +17°C° 0 mm 7 mps 753 mmHg 70%
17:00 +16°C° 0 mm 7 mps 753 mmHg 72%
18:00 +16°C° 0 mm 6 mps 753 mmHg 74%
19:00 +15°C° 0 mm 6 mps 753 mmHg 76%
20:00 +14°C° 0 mm 6 mps 753 mmHg 80%
21:00 +14°C° 0 mm 6 mps 753 mmHg 83%
22:00 +13°C° 0 mm 6 mps 753 mmHg 87%
23:00 +13°C° 0 mm 6 mps 753 mmHg 87%

3 October, Saturday

Time Temperature Precipitation Wind Pressure Humidity
00:00 +13°C° 0 mm 6 mps 753 mmHg 88%
01:00 +11°C° 0 mm 6 mps 753 mmHg 89%
02:00 +11°C° 0 mm 6 mps 752 mmHg 88%
03:00 +11°C° 0 mm 6 mps 752 mmHg 88%
04:00 +11°C° 0 mm 7 mps 752 mmHg 87%
05:00 +11°C° 0 mm 7 mps 752 mmHg 86%
06:00 +11°C° 0 mm 7 mps 751 mmHg 85%
07:00 +11°C° 0 mm 8 mps 751 mmHg 83%
08:00 +13°C° 0 mm 8 mps 751 mmHg 78%
09:00 +15°C° 0 mm 8 mps 751 mmHg 73%
10:00 +16°C° 0 mm 9 mps 751 mmHg 68%
11:00 +17°C° 0 mm 9 mps 751 mmHg 67%
12:00 +17°C° 0 mm 9 mps 750 mmHg 66%
13:00 +17°C° 0 mm 9 mps 750 mmHg 65%
14:00 +17°C° 0 mm 9 mps 750 mmHg 68%
15:00 +17°C° 0 mm 9 mps 749 mmHg 70%
16:00 +17°C° 0 mm 9 mps 749 mmHg 72%
17:00 +16°C° 0 mm 9 mps 749 mmHg 74%
18:00 +16°C° 0 mm 8 mps 749 mmHg 75%
19:00 +16°C° 0 mm 8 mps 749 mmHg 77%
20:00 +16°C° 0 mm 7 mps 748 mmHg 77%
21:00 +16°C° 0 mm 7 mps 748 mmHg 77%
22:00 +16°C° 0 mm 6 mps 748 mmHg 77%
23:00 +15°C° 0 mm 6 mps 748 mmHg 79%

4 October, Sunday

Time Temperature Precipitation Wind Pressure Humidity
00:00 +15°C° 0 mm 6 mps 747 mmHg 82%
01:00 +15°C° 0 mm 6 mps 747 mmHg 85%
02:00 +14°C° 1.1 mm 5 mps 746 mmHg 88%
03:00 +14°C° 1.1 mm 5 mps 746 mmHg 92%
04:00 +14°C° 1.1 mm 4 mps 745 mmHg 96%
05:00 +13°C° 4.8 mm 5 mps 745 mmHg 96%
06:00 +13°C° 4.8 mm 5 mps 745 mmHg 96%
07:00 +13°C° 4.8 mm 6 mps 745 mmHg 96%
08:00 +13°C° 2.5 mm 6 mps 744 mmHg 94%
09:00 +11°C° 2.5 mm 6 mps 744 mmHg 92%
10:00 +11°C° 2.5 mm 6 mps 744 mmHg 90%
11:00 +13°C° 0.5 mm 5 mps 744 mmHg 84%
12:00 +14°C° 0.5 mm 5 mps 745 mmHg 79%
13:00 +14°C° 0.5 mm 5 mps 745 mmHg 73%
14:00 +15°C° 0 mm 4 mps 745 mmHg 72%
15:00 +17°C° 0 mm 4 mps 746 mmHg 71%
16:00 +17°C° 0 mm 4 mps 746 mmHg 69%
17:00 +15°C° 0 mm 4 mps 746 mmHg 73%
18:00 +14°C° 0 mm 3 mps 747 mmHg 77%
19:00 +13°C° 0 mm 3 mps 747 mmHg 82%
20:00 +13°C° 0 mm 4 mps 747 mmHg 80%
21:00 +13°C° 0 mm 5 mps 747 mmHg 79%
22:00 +13°C° 0 mm 6 mps 748 mmHg 78%
23:00 +12°C° 0 mm 5 mps 748 mmHg 80%
Show more